Regional Weather Roundup
Issued by NWS

Home | Current Version | Previous Version | Graphics & Text | Print | Product List | Glossary On
Versions: 1 2 3 4 5 6 7 8 9 10 11 12 13 14 15 16 17 18 19 20 21 22 23 24 25 26 27 28 29 30 31 32 33 34 35 36 37 38 39 40 41 42 43 44 45 46 47 48 49 50
040
ASUS44 KMEG 281010
RWRTN
TENNESSEE HOURLY STATE WEATHER ROUNDUP
NATIONAL WEATHER SERVICE MEMPHIS TN
500 AM CDT SUN AUG 28 2016

TNZ002-004-019-021-049-052-054-088>092-281100-
WEST TENNESSEE

CITY           SKY/WX    TMP DP  RH WIND       PRES   REMARKS
MEMPHIS INTL   CLEAR     77  71  82 E5        30.05F
NWS MEMPHIS      N/A     73 N/A N/A MISG        N/A
JACKSON        FOG       71  71 100 CALM      30.08S VSB 3/4
DYERSBURG      CLEAR     73  72  94 MISG      30.08R
UNION CITY     CLEAR     72  72 100 CALM      30.08S
PARIS          CLEAR     70  68  94 CALM      30.10S
$$

TNZ008-025-027-028-033-062-065-066-281100-
NORTH MIDDLE TENNESSEE

CITY           SKY/WX    TMP DP  RH WIND       PRES   REMARKS
NASHVILLE      CLEAR     73  70  90 CALM      30.12R
CLARKSVILLE    CLEAR     71  69  93 CALM      30.11R
COOKEVILLE     CLEAR     66  66 100 CALM      30.14R
CROSSVILLE     CLEAR     68  66  93 CALM      30.20R
$$

TNZ061-075-076-078-094-096-097-281100-
SOUTH MIDDLE TENNESSEE

CITY           SKY/WX    TMP DP  RH WIND       PRES   REMARKS
FAYETTEVILLE   CLOUDY    72  70  94 NE6       30.12R
TULLAHOMA      CLEAR     70  66  88 CALM      30.15R
WINCHESTER     CLEAR     72  68  88 SE3       30.13S
MCMINNVILLE    CLEAR     70  70 100 CALM      30.14R
COLUMBIA       MOCLDY   N/A N/A N/A CALM      30.10R VSB 1/2
SHELBYVILLE    CLEAR     72  72 100 CALM      30.13R
$$

TNZ017-018-042-046-047-281100-
NORTHEAST TENNESSEE

CITY           SKY/WX    TMP DP  RH WIND       PRES   REMARKS
TRI CITIES     MOCLDY    74  70  87 W6        30.20R
ELIZABETHTON     N/A     77  70  78 NE3       30.19R
$$

TNZ012-013-036-069-073-074-281100-
CENTRAL EAST TENNESSEE

CITY           SKY/WX    TMP DP  RH WIND       PRES   REMARKS
KNOXVILLE      PTCLDY    70  69  97 NE6       30.15R
OAK RIDGE      CLEAR     72  69  90 CALM      30.17R
GATLINBURG     CLEAR     68  66  94 CALM      30.16R
MORRISTOWN     CLEAR     72  68  88 SE5       30.16R
$$

TNZ083-085-099-281100-
SOUTHEAST TENNESSEE

CITY           SKY/WX    TMP DP  RH WIND       PRES   REMARKS
CHATTANOOGA    PTCLDY    74  70  87 CALM      30.14R
$$

SKY/WX REPORTED AS FAIR MEANS FEW OR NO CLOUDS BELOW
12 THOUSAND FEET.





USA.gov is the U.S. government's official web portal to all federal, state and local government web resources and services.